Hourly Weather Pudyshi

Today, 12 May, Wednesday

Time Temperature Precipitation Wind Pressure Humidity
00:00 +10°C° 0 mm 2 mps 746 mmHg 93%
01:00 +9°C° 0 mm 2 mps 746 mmHg 94%
02:00 +9°C° 0 mm 2 mps 746 mmHg 96%
03:00 +9°C° 0 mm 2 mps 746 mmHg 95%
04:00 +9°C° 0 mm 2 mps 746 mmHg 95%
05:00 +10°C° 0 mm 2 mps 747 mmHg 94%
06:00 +12°C° 0 mm 2 mps 747 mmHg 85%
07:00 +14°C° 0 mm 2 mps 747 mmHg 76%
08:00 +15°C° 0 mm 2 mps 747 mmHg 66%
09:00 +16°C° 0 mm 2 mps 747 mmHg 61%
10:00 +17°C° 0 mm 2 mps 746 mmHg 56%
11:00 +18°C° 0 mm 2 mps 746 mmHg 51%
12:00 +19°C° 0.1 mm 3 mps 745 mmHg 55%
13:00 +19°C° 0.1 mm 4 mps 744 mmHg 59%
14:00 +19°C° 0.1 mm 5 mps 744 mmHg 63%
15:00 +18°C° 1.5 mm 4 mps 743 mmHg 71%
16:00 +17°C° 1.5 mm 4 mps 742 mmHg 79%
17:00 +15°C° 1.5 mm 4 mps 742 mmHg 87%
18:00 +14°C° 1.1 mm 4 mps 741 mmHg 89%
19:00 +13°C° 1.1 mm 4 mps 741 mmHg 91%
20:00 +13°C° 1.1 mm 5 mps 740 mmHg 93%
21:00 +12°C° 0.1 mm 4 mps 740 mmHg 93%
22:00 +11°C° 0.1 mm 4 mps 741 mmHg 93%
23:00 +10°C° 0.1 mm 4 mps 741 mmHg 93%

Tomorrow, 13 May, Thursday

Time Temperature Precipitation Wind Pressure Humidity
00:00 +9°C° 0 mm 3 mps 741 mmHg 94%
01:00 +7°C° 0 mm 3 mps 741 mmHg 96%
02:00 +6°C° 0 mm 2 mps 742 mmHg 97%
03:00 +5°C° 0 mm 3 mps 741 mmHg 96%
04:00 +5°C° 0 mm 3 mps 741 mmHg 95%
05:00 +5°C° 0 mm 3 mps 741 mmHg 95%
06:00 +7°C° 0 mm 4 mps 741 mmHg 90%
07:00 +8°C° 0 mm 4 mps 741 mmHg 86%
08:00 +9°C° 0 mm 5 mps 741 mmHg 82%
09:00 +12°C° 0 mm 5 mps 741 mmHg 78%
10:00 +13°C° 0 mm 5 mps 740 mmHg 73%
11:00 +14°C° 0 mm 5 mps 740 mmHg 69%
12:00 +14°C° 0.4 mm 5 mps 740 mmHg 72%
13:00 +14°C° 0.4 mm 5 mps 739 mmHg 75%
14:00 +14°C° 0.4 mm 4 mps 739 mmHg 79%
15:00 +12°C° 0.7 mm 4 mps 739 mmHg 84%
16:00 +11°C° 0.7 mm 3 mps 738 mmHg 89%
17:00 +9°C° 0.7 mm 3 mps 738 mmHg 94%
18:00 +9°C° 1.4 mm 3 mps 738 mmHg 95%
19:00 +8°C° 1.4 mm 2 mps 738 mmHg 96%
20:00 +8°C° 1.4 mm 2 mps 738 mmHg 97%
21:00 +8°C° 0.1 mm 2 mps 738 mmHg 97%
22:00 +7°C° 0.1 mm 2 mps 738 mmHg 97%
23:00 +7°C° 0.1 mm 3 mps 738 mmHg 97%

Day after tomorrow, 14 May, Friday

Time Temperature Precipitation Wind Pressure Humidity
00:00 +5°C° 0 mm 3 mps 738 mmHg 97%
01:00 +6°C° 0 mm 2 mps 738 mmHg 96%
02:00 +6°C° 0 mm 2 mps 739 mmHg 96%
03:00 +6°C° 0 mm 2 mps 739 mmHg 95%
04:00 +6°C° 0 mm 2 mps 739 mmHg 94%
05:00 +6°C° 0 mm 2 mps 740 mmHg 94%
06:00 +8°C° 0 mm 2 mps 740 mmHg 88%
07:00 +10°C° 0 mm 3 mps 740 mmHg 82%
08:00 +12°C° 0 mm 3 mps 740 mmHg 76%
09:00 +13°C° 0 mm 3 mps 740 mmHg 70%
10:00 +16°C° 0 mm 3 mps 740 mmHg 65%
11:00 +17°C° 0 mm 4 mps 740 mmHg 59%
12:00 +18°C° 0 mm 4 mps 739 mmHg 58%
13:00 +19°C° 0 mm 4 mps 739 mmHg 57%
14:00 +20°C° 0 mm 4 mps 739 mmHg 56%
15:00 +19°C° 0.1 mm 4 mps 738 mmHg 62%
16:00 +19°C° 0.1 mm 4 mps 738 mmHg 68%
17:00 +19°C° 0.1 mm 4 mps 737 mmHg 74%
18:00 +17°C° 0.3 mm 4 mps 737 mmHg 81%
19:00 +15°C° 0.3 mm 4 mps 736 mmHg 88%
20:00 +14°C° 0.3 mm 4 mps 736 mmHg 94%
21:00 +13°C° 0.2 mm 3 mps 736 mmHg 95%
22:00 +13°C° 0.2 mm 3 mps 735 mmHg 96%
23:00 +13°C° 0.2 mm 3 mps 735 mmHg 96%

15 May, Saturday

Time Temperature Precipitation Wind Pressure Humidity
00:00 +12°C° 0 mm 3 mps 735 mmHg 96%
01:00 +13°C° 0 mm 2 mps 735 mmHg 97%
02:00 +13°C° 0 mm 2 mps 734 mmHg 97%
03:00 +13°C° 0 mm 2 mps 734 mmHg 97%
04:00 +13°C° 0 mm 2 mps 734 mmHg 97%
05:00 +13°C° 0 mm 2 mps 734 mmHg 96%
06:00 +14°C° 0.2 mm 3 mps 734 mmHg 93%
07:00 +16°C° 0.2 mm 3 mps 734 mmHg 90%
08:00 +17°C° 0.2 mm 4 mps 734 mmHg 87%
09:00 +18°C° 0.1 mm 4 mps 734 mmHg 82%
10:00 +19°C° 0.1 mm 4 mps 734 mmHg 78%
11:00 +20°C° 0.1 mm 4 mps 734 mmHg 73%
12:00 +20°C° 1.2 mm 4 mps 734 mmHg 74%
13:00 +20°C° 1.2 mm 4 mps 733 mmHg 75%
14:00 +20°C° 1.2 mm 4 mps 733 mmHg 76%
15:00 +20°C° 0.8 mm 4 mps 733 mmHg 76%
16:00 +20°C° 0.8 mm 4 mps 733 mmHg 77%
17:00 +19°C° 0.8 mm 4 mps 733 mmHg 77%
18:00 +18°C° 0.6 mm 3 mps 733 mmHg 82%
19:00 +16°C° 0.6 mm 3 mps 733 mmHg 87%
20:00 +13°C° 0.6 mm 3 mps 733 mmHg 92%
21:00 +13°C° 0.1 mm 3 mps 733 mmHg 94%
22:00 +12°C° 0.1 mm 3 mps 733 mmHg 95%
23:00 +12°C° 0.1 mm 4 mps 734 mmHg 96%

16 May, Sunday

Time Temperature Precipitation Wind Pressure Humidity
00:00 +12°C° 0 mm 4 mps 734 mmHg 96%
01:00 +11°C° 0 mm 4 mps 734 mmHg 97%
02:00 +11°C° 0 mm 4 mps 735 mmHg 97%
03:00 +11°C° 0 mm 4 mps 735 mmHg 96%
04:00 +11°C° 0 mm 3 mps 736 mmHg 96%
05:00 +10°C° 0 mm 3 mps 736 mmHg 95%
06:00 +11°C° 0 mm 4 mps 737 mmHg 91%
07:00 +12°C° 0 mm 4 mps 737 mmHg 86%
08:00 +13°C° 0 mm 5 mps 737 mmHg 81%
09:00 +14°C° 0 mm 4 mps 738 mmHg 76%
10:00 +15°C° 0 mm 4 mps 738 mmHg 72%
11:00 +17°C° 0 mm 4 mps 738 mmHg 67%
12:00 +18°C° 0 mm 4 mps 739 mmHg 63%
13:00 +19°C° 0 mm 3 mps 739 mmHg 59%
14:00 +19°C° 0 mm 3 mps 739 mmHg 54%
15:00 +19°C° 0 mm 3 mps 739 mmHg 56%
16:00 +19°C° 0 mm 2 mps 739 mmHg 58%
17:00 +20°C° 0 mm 1 mps 739 mmHg 59%
18:00 +18°C° 0 mm 1 mps 739 mmHg 66%
19:00 +16°C° 0 mm 1 mps 740 mmHg 74%
20:00 +14°C° 0 mm 1 mps 740 mmHg 81%
21:00 +13°C° 0 mm 1 mps 740 mmHg 83%
22:00 +13°C° 0 mm 1 mps 740 mmHg 86%
23:00 +12°C° 0 mm 2 mps 740 mmHg 89%

17 May, Monday

Time Temperature Precipitation Wind Pressure Humidity
00:00 +12°C° 0 mm 2 mps 740 mmHg 90%
01:00 +10°C° 0 mm 2 mps 741 mmHg 92%
02:00 +10°C° 0 mm 2 mps 741 mmHg 93%
03:00 +10°C° 0 mm 2 mps 741 mmHg 92%
04:00 +10°C° 0 mm 2 mps 741 mmHg 91%
05:00 +11°C° 0 mm 3 mps 741 mmHg 90%
06:00 +13°C° 0 mm 3 mps 741 mmHg 83%
07:00 +15°C° 0 mm 4 mps 741 mmHg 76%
08:00 +17°C° 0 mm 5 mps 741 mmHg 68%
09:00 +19°C° 0 mm 5 mps 740 mmHg 65%
10:00 +20°C° 0 mm 5 mps 740 mmHg 62%
11:00 +22°C° 0 mm 5 mps 740 mmHg 59%
12:00 +23°C° 0 mm 5 mps 740 mmHg 59%
13:00 +23°C° 0 mm 5 mps 739 mmHg 59%
14:00 +25°C° 0 mm 5 mps 739 mmHg 59%
15:00 +25°C° 0 mm 5 mps 739 mmHg 63%
16:00 +23°C° 0 mm 5 mps 738 mmHg 66%
17:00 +23°C° 0 mm 5 mps 738 mmHg 70%
18:00 +22°C° 0 mm 5 mps 738 mmHg 75%
19:00 +20°C° 0 mm 5 mps 738 mmHg 81%
20:00 +19°C° 0 mm 4 mps 738 mmHg 87%
21:00 +19°C° 0 mm 4 mps 738 mmHg 88%
22:00 +18°C° 0 mm 4 mps 738 mmHg 90%
23:00 +17°C° 0 mm 4 mps 738 mmHg 92%
Show more

We Need Your Consent

Meteoprog and our Service Providers may store and access personal data such as cookies, device identifiers or other similar technologies on your device and process such data to personalise content and ads, as well as provide social media features and to analyse the traffic.

  • Store and/or access information on your device

    Cookies, device identifiers or other information can be stored or accessed on your device for the purposes indicated above.

  • Personalised ads and content, ad and content measurement, audience insights, and products development

    Ads and content can be personalised based on a profile. More data can be added to better personalise ads and content. Ad and content performance can be measured. Insights about the audience who saw the ads and content can be derived. Such data can be used to develop or improve user’s experience, systems and software.

By clicking ‘I Agree’ you will allow the use of indicated cookies, device identifiers, web beacons or other similar technologies. Your settings can be changed in the browser on your device.

For certain purposes, legitimate interests may be relied on, rather than consent. You can read more about this in our Privacy and Cookie Policy.